Regional Weather Roundup
Issued by NWS

Home | Current Version | Previous Version | Graphics & Text | Print | Product List | Glossary On
Versions: 1 2 3 4 5 6 7 8 9 10 11 12 13 14 15 16 17 18 19 20 21 22 23 24 25 26 27 28 29 30 31 32 33 34 35 36 37 38 39 40 41 42 43 44 45 46 47 48 49 50
000
ASUS45 KPSR 281110
RWRAZ

ARIZONA HOURLY REGIONAL WEATHER ROUNDUP
NATIONAL WEATHER SERVICE PHOENIX AZ
400 AM MST FRI JUL 28 2017

NOTE: FAIR INDICATES FEW OR NO CLOUDS BELOW 12,000 FEET WITH NO
SIGNIFICANT WEATHER AND/OR OBSTRUCTIONS TO VISIBILITY.

AZZ001>003-036-281200-
NORTHWEST ARIZONA

CITY           SKY/WX    TMP DP  RH WIND       PRES   REMARKS
KINGMAN        CLOUDY    80  49  33 SE9       30.00S
$$

AZZ004>008-015-016-018-281200-
NORTH CENTRAL ARIZONA

CITY           SKY/WX    TMP DP  RH WIND       PRES   REMARKS
GRAND CANYON   CLOUDY    62  58  86 CALM      30.27S
WILLIAMS       CLOUDY    59  54  82 S7        30.27F
PRESCOTT       MOCLDY    67  63  87 CALM      30.17R
FLAGSTAFF      CLOUDY    55  54  96 CALM      30.31R
PAYSON         CLOUDY    64  61  88 E6        30.22R
PAGE           CLOUDY    77  59  53 S9        30.08S
$$

AZZ009>014-017-281200-
NORTHEAST ARIZONA

CITY           SKY/WX    TMP DP  RH WIND       PRES   REMARKS
WINSLOW        CLOUDY    68  64  87 E10       30.17F
SAINT JOHNS    CLOUDY    67  62  84 CALM      30.21S
WINDOW ROCK    CLOUDY    63  58  83 CALM      30.28F
SHOW LOW         N/A    N/A N/A N/A MISG        N/A
$$

AZZ540-542>544-546-548-281200-
GREATER PHOENIX AREA

CITY           SKY/WX    TMP DP  RH WIND       PRES   REMARKS
PHOENIX        CLOUDY    86  65  49 SE14      29.88R
BUCKEYE        CLOUDY    90  63  40 E7        29.86R
LUKE AFB       MOCLDY    90  64  41 SE13      29.86R
DEER VALLEY    MOCLDY    85  66  53 SE10      29.91R
SCOTTSDALE     CLOUDY    85  65  51 VRB5      29.93R
MESA-GATEWAY   CLOUDY    81  68  65 E13       29.91S
$$

AZZ539-553-281200-
SOUTHWEST MARICOPA COUNTY AND PINAL COUNTY

CITY           SKY/WX    TMP DP  RH WIND       PRES   REMARKS
CASA GRANDE    CLOUDY    83  66  56 SE7       29.93R
GILA BEND      FAIR      91  61  36 SE18      29.84R
$$

AZZ503-504-507>509-281200-
SOUTHEAST ARIZONA

CITY           SKY/WX    TMP DP  RH WIND       PRES   REMARKS
TUCSON         CLOUDY    75  68  78 E9        30.03F
DAVIS-MONTHAN  CLOUDY    74  67  77 SE8       30.02S
NOGALES        CLOUDY    68  68 100 S5        30.10S
SIERRA VISTA   MOCLDY    65  63  94 NE5       30.17R
DOUGLAS        PTCLDY    64  62  93 E5        30.13R
SAFFORD        MOCLDY    71  68  90 NW3       30.04S
$$

AZZ532-281200-
SOUTHWEST ARIZONA

CITY           SKY/WX    TMP DP  RH WIND       PRES   REMARKS
YUMA           MOCLDY    92  62  36 SE24G36   29.78R
$$

CAZ041-043-047-048-061-525>527-560>570-281200-
SOUTHERN CALIFORNIA

CITY           SKY/WX    TMP DP  RH WIND       PRES   REMARKS
DOWNTOWN L.A.  CLEAR     67  62  84 CALM      29.90S
L.A. AIRPORT   MOCLDY    66  63  90 N3        29.90S
SAN DIEGO      CLOUDY    70  64  81 NW3       29.91F
BURBANK        CLEAR     67  60  78 E5        29.91S
ONTARIO        PTCLDY    67  60  78 SW3       29.92S
RIVERSIDE      CLEAR     68  62  81 CALM      29.92R
PALM SPRINGS   CLEAR     85  54  34 CALM      29.78R
EL CENTRO NAS  CLEAR     88  41  19 SW5       29.74R
IMPERIAL       CLEAR     88  49  25 SE16G22   29.74R
BLYTHE         PTCLDY    94  56  27 S8        29.75R
NEEDLES        PTCLDY    96  40  14 W6        29.77S
$$

NVZ020-UTZ003-281200-
SOUTHERN NEVADA-UTAH

CITY           SKY/WX    TMP DP  RH WIND       PRES   REMARKS
LAS VEGAS      PTCLDY    88  41  19 CALM      29.86S
SALT LAKE CITY PTCLDY    71  59  65 CALM      30.08S
$$

NMZ009-TXZ055-281200-
NEW MEXICO-WEST TEXAS

CITY           SKY/WX    TMP DP  RH WIND       PRES   REMARKS
ALBUQUERQUE    LGT RAIN  63  62  97 S3        30.22S
EL PASO        PTCLDY    72  65  78 N12       30.06F
$$


........................KEY........................
SKY/WX - SKY CONDITION/WEATHER
TMP    - TEMPERATURE IN FAHRENHEIT
DP     - DEW POINT IN FAHRENHEIT
RH     - RELATIVE HUMIDITY IN PERCENT
WIND   - DIRECTION AND SPEED IN MILES PER HOUR (MPH)
VRB    - VARIABLE WIND DIRECTION
PRES   - MEAN SEA LEVEL PRESSURE IN INCHES OF MERCURY
         F - FALLING PRESSURE   R - RISING PRESSURE
         S - STEADY PRESSURE
VSB    - VISIBILITY IN MILES
HX     - HEAT INDEX IN FAHRENHEIT
WCI    - WIND CHILL INDEX IN FAHRENHEIT
TC     - TEMPERATURE IN CELSIUS WHICH IS ALSO KNOWN AS
         TEMPERATURE IN CENTIGRADE
AFB    - AIR FORCE BASE
         LUKE AFB IS LUKE AIR FORCE BASE
         DAVIS-MONTHAN IS DAVIS-MONTHAN AIR FORCE BASE
NAS    - NAVAL AIR STATION
         EL CENTRO NAS IS EL CENTRO NAVAL AIR STATION
N/A    - NOT AVAILABLE




USA.gov is the U.S. government's official web portal to all federal, state and local government web resources and services.